EW9051 Weather Reports


time (UTC)temp
F
wind
direction
speed
knots
gust
knots
rain 1hr
in
rain 24hr
in
rain mn
in
humidity
%
barometer
mb
20260502180603 59 251 4.3 10.4 0.00 0.00 0.00 42 1018.3
20260502170103 55 280 5.2 11.3 0.00 0.00 0.00 44 1019.6
20260502164103 55 210 3.5 7.8 0.00 0.00 0.00 45 1019.6
20260502163603 55 253 4.3 8.7 0.00 0.00 0.00 45 1019.6
20260502163103 55 268 5.2 8.7 0.00 0.00 0.00 44 1019.6
20260502162603 55 288 7.0 10.4 0.00 0.00 0.00 44 1019.6
20260502162103 55 277 5.2 10.4 0.00 0.00 0.00 45 1019.6
20260502161103 55 252 4.3 10.4 0.00 0.00 0.00 44 1019.6
20260502160602 54 277 1.7 7.8 0.00 0.00 0.00 47 1019.6
20260502152103 52 218 4.3 8.7 0.00 0.00 0.00 49 1020.0
20260502151603 51 214 1.7 11.3 0.00 0.00 0.00 52 1020.0
20260502151103 51 249 5.2 8.7 0.00 0.00 0.00 50 1020.0
20260502150603 51 246 4.3 8.7 0.00 0.00 0.00 50 1020.0
20260502150103 51 242 2.6 10.4 0.00 0.00 0.00 53 1020.3
20260502130603 43 266 1.7 2.6 0.00 0.00 0.00 62 1020.7
20260502122603 40 227 1.7 4.3 0.00 0.00 0.00 64 1020.7
20260502122103 40 257 0.0 2.6 0.00 0.00 0.00 64 1020.7
20260502121603 39 257 0.0 1.7 0.00 0.00 0.00 64 1020.7
20260502121103 39 256 0.9 2.6 0.00 0.00 0.00 65 1020.7
20260502120603 39 257 0.0 0.9 0.00 0.00 0.00 65 1020.7
20260502115603 38 271 0.9 2.6 0.00 0.00 0.00 64 1020.3
20260502114103 38 234 0.9 2.6 0.00 0.00 0.00 64 1020.3
20260502113604 38 259 0.9 2.6 0.00 0.00 0.00 64 1020.3
20260502113103 38 269 0.9 2.6 0.00 0.00 0.00 64 1020.3
20260502112603 37 239 0.9 2.6 0.00 0.00 0.00 64 1020.3
20260502112103 37 260 0.9 2.6 0.00 0.00 0.00 64 1020.3
20260502111603 37 243 0.9 4.3 0.00 0.00 0.00 64 1020.3
20260502110103 36 9 0.0 0.9 0.00 0.00 0.00 66 1020.3
20260502105603 36 9 0.0 0.9 0.00 0.00 0.00 66 1020.3
20260502105103 36 9 0.0 0.0 0.00 0.00 0.00 66 1020.3
20260502104603 36 9 0.0 0.9 0.00 0.00 0.00 67 1020.3
20260502104103 36 9 0.0 0.0 0.00 0.00 0.00 67 1020.3
20260502103603 36 9 0.0 0.0 0.00 0.00 0.00 68 1020.3
20260502103103 36 9 0.0 0.0 0.00 0.00 0.00 68 1020.3
20260502102603 36 9 0.0 0.0 0.00 0.00 0.00 68 1020.3
20260502102103 36 9 0.0 0.0 0.00 0.00 0.00 68 1020.3
20260502101603 35 9 0.0 0.0 0.00 0.00 0.00 67 1020.3
20260502101103 35 9 0.0 0.0 0.00 0.00 0.00 67 1020.3
20260502100603 35 9 0.0 0.0 0.00 0.00 0.00 68 1020.3
20260502091103 36 9 0.0 0.0 0.00 0.00 0.00 69 1020.3
20260502090604 35 9 0.0 0.0 0.00 0.00 0.00 70 1020.3
20260502071103 38 9 0.0 0.0 0.00 0.00 0.00 69 1020.3
20260502070603 38 9 0.0 0.0 0.00 0.00 0.00 69 1020.3
20260502065603 39 9 0.0 0.0 0.00 0.00 0.00 70 1020.7
20260502065103 39 9 0.0 0.0 0.00 0.00 0.00 69 1020.7
20260502064603 39 9 0.0 0.0 0.00 0.00 0.00 70 1020.7
20260502063103 40 9 0.0 0.0 0.00 0.00 0.00 71 1020.7
20260502062603 40 9 0.0 0.0 0.00 0.00 0.00 71 1020.7
20260502062103 40 9 0.0 0.0 0.00 0.00 0.00 69 1020.7
20260502061603 40 9 0.0 0.0 0.00 0.00 0.00 66 1020.7
20260502061103 40 9 0.0 0.0 0.00 0.00 0.00 65 1020.7
20260502060603 40 9 0.0 0.0 0.00 0.00 0.00 64 1020.7
20260502055103 40 9 0.0 0.0 0.00 0.00 0.00 64 1020.3
20260502054603 40 9 0.0 0.0 0.00 0.00 0.00 64 1020.3
20260502053603 40 9 0.0 0.0 0.00 0.00 0.00 69 1020.3
20260502053103 40 9 0.0 0.0 0.00 0.00 0.00 68 1020.3
20260502052103 40 9 0.0 0.0 0.00 0.00 0.00 67 1020.3
20260502051603 41 9 0.0 0.0 0.00 0.00 0.00 66 1020.3
20260502051103 41 9 0.0 0.0 0.00 0.00 0.00 67 1020.3
20260502045603 41 9 0.0 0.0 0.00 0.00 0.00 66 1020.3
20260502044603 42 9 0.0 0.0 0.00 0.00 0.00 65 1020.3
20260502043604 42 9 0.0 0.0 0.00 0.00 0.00 64 1020.3
20260502043103 42 9 0.0 0.0 0.00 0.00 0.00 63 1020.3
20260502042603 42 9 0.0 0.0 0.00 0.00 0.00 63 1020.3
20260502042104 42 9 0.0 0.0 0.00 0.00 0.00 63 1020.3
20260502041603 43 9 0.0 0.0 0.00 0.00 0.00 62 1020.3
20260502041103 43 9 0.0 0.0 0.00 0.00 0.00 62 1020.3
20260502040603 43 9 0.0 0.0 0.00 0.00 0.00 61 1020.3
20260502035603 44 9 0.0 0.0 0.00 0.00 0.00 60 1020.0
20260502035103 45 9 0.0 0.0 0.00 0.00 0.00 59 1020.0
20260502034603 45 9 0.0 0.0 0.00 0.00 0.00 59 1020.0
20260502034103 45 9 0.0 0.0 0.00 0.00 0.00 57 1020.0
20260502033604 46 9 0.0 0.0 0.00 0.00 0.00 57 1020.0
20260502033103 46 9 0.0 1.7 0.00 0.00 0.00 57 1020.0
20260502032603 46 9 0.0 0.9 0.00 0.00 0.00 57 1020.0
20260502032103 46 9 0.0 0.0 0.00 0.00 0.00 56 1020.0
20260502031603 46 9 0.0 0.0 0.00 0.00 0.00 55 1020.0
20260502030603 47 9 0.9 2.6 0.00 0.00 0.00 54 1020.0
20260502030103 47 5 2.6 4.3 0.00 0.00 0.00 54 1019.6
20260502025603 47 5 0.9 2.6 0.00 0.00 0.00 54 1019.6
20260502025103 47 5 1.7 4.3 0.00 0.00 0.00 54 1019.6
20260502024103 47 5 1.7 2.6 0.00 0.00 0.00 54 1019.6
20260502023103 47 12 1.7 4.3 0.00 0.00 0.00 53 1019.6
20260502022103 47 5 2.6 7.0 0.00 0.00 0.00 52 1019.6
20260502021603 47 8 1.7 4.3 0.00 0.00 0.00 53 1019.6
20260502021102 47 9 1.7 4.3 0.00 0.00 0.00 52 1019.6
20260502020603 47 355 2.6 4.3 0.00 0.00 0.00 52 1019.6
20260502020103 47 6 1.7 4.3 0.00 0.00 0.00 52 1019.0
20260502015602 48 342 1.7 2.6 0.00 0.00 0.00 51 1019.0
20260502014603 48 9 2.6 4.3 0.00 0.00 0.00 51 1019.0
20260502014103 48 5 2.6 4.3 0.00 0.00 0.00 50 1019.0
20260502013103 48 349 3.5 8.7 0.00 0.00 0.00 51 1019.0
20260502012603 48 3 2.6 8.7 0.00 0.00 0.00 50 1019.0
20260502011103 48 0 2.6 7.0 0.00 0.00 0.00 50 1019.0
20260502005603 49 341 5.2 7.0 0.00 0.00 0.00 49 1018.6
20260502005103 49 338 7.8 11.3 0.00 0.00 0.00 49 1018.6
20260502004603 49 330 4.3 8.7 0.00 0.00 0.00 48 1018.6
20260502004103 49 6 4.3 7.8 0.00 0.00 0.00 48 1018.6
20260502003603 49 349 7.0 10.4 0.00 0.00 0.00 48 1018.6
20260502003103 49 347 5.2 8.7 0.00 0.00 0.00 48 1018.6
20260502002603 49 7 4.3 8.7 0.00 0.00 0.00 48 1018.6
20260502002103 49 6 4.3 7.8 0.00 0.00 0.00 49 1018.6
20260502001103 49 30 5.2 10.4 0.00 0.00 0.00 49 1018.6
20260502000603 49 12 5.2 7.8 0.00 0.00 0.00 49 1018.6
20260501235603 50 7 5.2 8.7 0.00 0.00 0.00 49 1018.6
20260501235103 50 27 6.1 10.4 0.00 0.00 0.00 48 1018.6
20260501233603 51 359 4.3 8.7 0.00 0.00 0.00 45 1018.6
20260501233103 51 0 4.3 8.7 0.00 0.00 0.00 46 1018.6
20260501232603 50 16 4.3 8.7 0.00 0.00 0.00 46 1018.6
20260501231603 50 344 2.6 7.0 0.00 0.00 0.00 47 1018.6
20260501231103 50 3 6.1 10.4 0.00 0.00 0.00 46 1018.6
20260501225603 50 26 5.2 7.8 0.00 0.00 0.00 46 1018.6
20260501225102 50 348 4.3 7.0 0.00 0.00 0.00 45 1018.6
20260501224603 50 10 6.1 10.4 0.00 0.00 0.00 48 1018.6
20260501224103 49 328 5.2 7.8 0.00 0.00 0.00 49 1018.6
20260501223603 49 334 6.1 10.4 0.00 0.00 0.00 49 1018.6
20260501223103 49 14 8.7 11.3 0.00 0.00 0.00 50 1018.6
20260501222103 50 25 7.8 11.3 0.00 0.00 0.00 49 1018.6
20260501221103 49 7 7.0 11.3 0.00 0.00 0.00 50 1018.6
20260501220603 50 38 4.3 10.4 0.00 0.00 0.00 48 1018.6
20260501215603 50 30 6.1 10.4 0.00 0.00 0.00 47 1018.6
20260501215103 50 341 6.1 10.4 0.00 0.00 0.00 47 1018.6
20260501214604 50 334 6.1 10.4 0.00 0.00 0.00 48 1018.6
20260501214103 49 15 6.1 11.3 0.00 0.00 0.00 49 1018.6
20260501213104 49 339 7.8 13.0 0.00 0.00 0.00 50 1018.6
20260501212603 49 22 5.2 10.4 0.00 0.00 0.00 50 1018.6
20260501212103 49 1 6.1 10.4 0.00 0.00 0.00 48 1018.6
20260501211603 49 0 4.3 10.4 0.00 0.00 0.00 50 1018.6
20260501210603 49 0 5.2 11.3 0.00 0.00 0.00 51 1018.6
20260501210103 49 338 7.0 13.0 0.00 0.00 0.00 50 1019.0
20260501205604 50 13 7.0 11.3 0.00 0.00 0.00 50 1019.0
20260501205103 50 303 2.6 8.7 0.00 0.00 0.00 49 1019.0
20260501204603 50 2 7.8 12.2 0.00 0.00 0.00 48 1019.0
20260501204103 50 9 7.0 11.3 0.00 0.00 0.00 49 1019.0
20260501203603 49 344 1.7 10.4 0.00 0.00 0.00 48 1019.0
20260501203103 49 337 6.1 12.2 0.00 0.00 0.00 47 1019.0
20260501202603 50 341 7.0 12.2 0.00 0.00 0.00 48 1019.0
20260501202103 49 42 2.6 13.0 0.00 0.00 0.00 52 1019.0
20260501201603 49 2 6.1 13.0 0.00 0.00 0.00 50 1019.0
20260501201103 48 5 4.3 10.4 0.00 0.00 0.00 50 1019.0
20260501195603 48 15 7.0 10.4 0.00 0.00 0.00 52 1019.0
20260501195103 49 357 7.0 11.3 0.00 0.00 0.00 50 1019.0
20260501194103 48 350 4.3 8.7 0.00 0.00 0.00 51 1019.0
20260501193603 48 337 6.1 13.0 0.00 0.00 0.00 52 1019.0
20260501193103 48 335 7.0 12.2 0.00 0.00 0.00 51 1019.0
20260501191103 47 19 7.0 12.2 0.00 0.00 0.00 52 1019.0
20260501190603 47 352 6.1 10.4 0.00 0.00 0.00 52 1019.0
20260501185103 47 336 5.2 11.3 0.00 0.00 0.00 54 1019.0
20260501184603 47 321 7.8 11.3 0.00 0.00 0.00 52 1019.0
20260501184103 47 8 5.2 8.7 0.00 0.00 0.00 53 1019.0
20260501183603 47 334 3.5 7.0 0.00 0.00 0.00 52 1019.0
20260501183103 47 3 5.2 10.4 0.00 0.00 0.00 53 1019.0
20260501182603 46 25 7.8 12.2 0.00 0.00 0.00 54 1019.0
20260501182103 47 335 5.2 10.4 0.00 0.00 0.00 55 1019.0
20260501181603 47 7 8.7 13.0 0.00 0.00 0.00 54 1019.0
20260501181103 47 333 8.7 13.0 0.00 0.00 0.00 55 1019.0